Regional Weather Roundup
Issued by NWS

Home | Current Version | Previous Version | Graphics & Text | Print | Product List | Glossary On
Versions: 1 2 3 4 5 6 7 8 9 10 11 12 13 14 15 16 17 18 19 20 21 22 23 24 25 26 27
000
ASUS45 KTFX 240010
RWRMT
MONTANA REGIONAL WEATHER ROUNDUP
NATIONAL WEATHER SERVICE GREAT FALLS MT
500 PM MST MON JAN 23 2017

NOTE: "FAIR" INDICATES FEW OR NO CLOUDS BELOW 12000 FEET WITH NO
SIGNIFICANT WEATHER AND/OR OBSTRUCTIONS TO VISIBILITY.

MTZ001>007-043-240100-
WEST OF THE DIVIDE

CITY           SKY/WX    TMP DP  RH WIND       PRES   REMARKS
KALISPELL      CLOUDY    32  20  61 CALM      29.74R
MISSOULA       CLOUDY    32  25  75 NW13G21   29.71R WCI  22
BUTTE          CLOUDY    19  12  74 SE3       29.61R
MULLAN PASS    CLOUDY    23  20  88 CALM      29.62R
ANACONDA         N/A     21  14  73 NW7       29.66R WCI  13
DEER LODGE       N/A     23  16  74 N10       29.70R WCI  12
EUREKA           N/A     30  21  69 CALM      29.77R
HAMILTON         N/A     25  18  74 N5        29.68R
PLAINS           N/A     31  25  78 CALM      29.77
RONAN            N/A     27  25  92 CALM      29.80R
$$

MTZ008-052>055-240100-
SOUTHWEST MONTANA

CITY           SKY/WX    TMP DP  RH WIND       PRES   REMARKS
BOZEMAN        CLOUDY    23  19  85 NE3       29.67R
DILLON         CLOUDY    19  15  84 NW5       29.59R
W YELLOWSTONE  CLOUDY    27  16  63 N8        29.46S WCI  18
ENNIS          CLOUDY    21  18  86 N23       29.62S WCI   5
TWIN BRIDGES     N/A     23  13  65 N13       29.64  WCI  11
$$

MTZ009-010-012-014-046-048-049-054-240100-
EAST SLOPES AND CENTRAL MONTANA

CITY           SKY/WX    TMP DP  RH WIND       PRES   REMARKS
CUT BANK       CLEAR     12  11  95 N6        29.77R WCI   3
GREAT FALLS    CLOUDY    20  16  84 CALM      29.78R
MALMSTROM AFB  FLURRIES  20  18  91 NW3       29.81R
HELENA         CLOUDY    24  16  71 NW6       29.74R WCI  17
CHOTEAU          N/A     19  19 100 NE5       29.79S
CONRAD           N/A     20  19  96 NW1       29.82S
$$

MTZ011-013-016-021-045-047-050-051-240100-
NORTH CENTRAL MONTANA

CITY           SKY/WX    TMP DP  RH WIND       PRES   REMARKS
HAVRE          CLOUDY    21  16  81 W6        29.84R WCI  13
LEWISTOWN      CLOUDY    21  18  88 W7        29.74R WCI  12
CHINOOK          N/A     21  18  86 W5        29.84S
FORT BENTON      N/A     23  18  80 MISG      29.84R
$$

MTZ017>020-022>027-061-062-240100-
NORTHEAST MONTANA

CITY           SKY/WX    TMP DP  RH WIND       PRES   REMARKS
GLASGOW        CLOUDY    23  18  81 NW8       29.80S WCI  14
JORDAN           N/A     26  22  84 N13       29.78R WCI  15
SIDNEY         LGT SNOW  23  21  92 N9        29.81R FOG     WCI  13
WOLF POINT     CLOUDY    26  21  81 CALM      29.82R
PLENTYWOOD       N/A     21  18  86 NW9       29.78S WCI  11
POPLAR           N/A     25  19  80 CALM      29.82R
$$

MTZ028>42-056>058-240100-
SOUTHCENTRAL AND SOUTHEAST MONTANA

CITY           SKY/WX    TMP DP  RH WIND       PRES   REMARKS
BAKER          CLOUDY    20  17  88 NE6       29.73S FOG     WCI  12
BILLINGS       CLOUDY    24  20  84 S3        29.73R
LIVINGSTON     LGT SNOW  26  22  84 E7        29.65R FOG     WCI  18
MILES CITY     CLOUDY    23  20  88 NE6       29.77R FOG     WCI  16
BIG TIMBER     CLOUDY    25  21  86 E12       29.70R HAZE    WCI  14
EKALAKA          N/A     15  10  80 NW2       29.70R VSB 0
FORSYTH          N/A     25  25 100 CALM      29.76R
LAUREL           N/A     23  17  78 CALM      29.74R
$$

REGIONAL REPORTS...DAKOTAS

CITY           SKY/WX    TMP DP  RH WIND       PRES   REMARKS
WILLISTON      LGT SNOW  21  18  88 NW6       29.81R FOG     WCI  13
MINOT          CLOUDY    24  18  77 NW12      29.78R WCI  13
DICKINSON      CLOUDY    23  20  88 N3        29.74R
BEACH          CLOUDY    23  23 100 CALM      29.79R
CROSBY         CLOUDY    21  19  93 NW13      29.81R WCI   9
TIOGA          CLOUDY    19  19 100 NW10      29.79R WCI   8
WATFORD CITY   LGT SNOW  23  19  86 N7        29.81R WCI  15
BISMARCK       CLOUDY    31  23  72 CALM      29.80R
GRAND FORKS    CLOUDY    31  24  75 W6        29.81S WCI  25
FARGO          CLOUDY    33  28  81 NW3       29.83S
BUFFALO SD       N/A     24  20  84 NE10      29.64R WCI  14
RAPID CITY     CLOUDY    22  20  92 N14       29.67R WCI   9
$$

REGIONAL REPORTS...WYOMING/IDAHO/WASHINGTON

CITY           SKY/WX    TMP DP  RH WIND       PRES   REMARKS
GILLETTE       CLOUDY    24  20  84 N9        29.62R WCI  14
SHERIDAN       CLOUDY    19  17  92 W13       29.68R WCI   6
BUFFALO WY     CLOUDY    25  17  72 N10       29.62R WCI  15
CODY           CLOUDY    21  18  88 NE15      29.60R WCI   8
YELLOWSTONE LA   N/A     22  16  78 VRB3      29.46F
IDAHO FALLS    CLOUDY    29  28  96 N12       29.42S WCI  19
SALMON         CLOUDY    12  10  92 CALM      29.62R
BOISE          CLOUDY    31  25  78 NW10      29.65R WCI  22
SPOKANE        MOCLDY    33  29  85 E6        29.77R WCI  28
$$

REGIONAL REPORTS...ALBERTA

CITY           SKY/WX    TMP DP  RH WIND       PRES   REMARKS
EDMONTON       CLOUDY    14   5  67 CALM      29.87S
CALGARY        CLOUDY    25  21  86 SE5       29.77R FOG
LETHBRIDGE     MOCLDY    23  16  74 SW3       29.80S
MEDICINE HAT   CLOUDY    19  18  93 NW5       29.85S
WATERTON GATE    N/A     18  14  86 E2          N/A
CARDSTON         N/A     23  16  74 S5          N/A
MILK RIVER       N/A     23  21  93 NE2         N/A
$$

REGIONAL REPORTS...SASKATCHEWAN

CITY           SKY/WX    TMP DP  RH WIND       PRES   REMARKS
SWIFT CURRENT  FLURRIES  14  14 100 NW15      29.77R WCI  -1
REGINA         CLOUDY    19  14  79 NW16      29.78S WCI   5
SASKATOON      FLURRIES   9   5  85 NW5       29.86R
VAL MARIE        N/A     19  16  86 N9          N/A  WCI   9
ROCKGLEN         N/A     18  16  93 NW9         N/A  WCI   6
ASSINIBOIA       N/A     14  12  92 CALM        N/A
$$




USA.gov is the U.S. government's official web portal to all federal, state and local government web resources and services.